This is the latest recevied weather packets stored in our database for station/object K2ATL. If no packets are shown the sender has not sent any weather packets the latest 10 day(s).
| Time | Temp. | Humidity | Pressure | Rain* | Wind** | Luminosity | Snow |
|---|---|---|---|---|---|---|---|
| 1788012180 | 21.11° C | 91% | 1107.3 hPa | 0 mm | - | 236 W/m² | - |
| 1788011879 | 21.67° C | 91% | 1107.3 hPa | 0 mm | - | 107 W/m² | - |
| 1788011578 | 21.11° C | 92% | 1107.2 hPa | 0 mm | - | 89 W/m² | - |
| 1788011274 | 21.67° C | 93% | 1107.3 hPa | 0 mm | - | 56 W/m² | - |
| 1788010972 | 21.11° C | 93% | 1107.2 hPa | 0 mm | - | 55 W/m² | - |
| 1788010668 | 21.11° C | 93% | 1107.2 hPa | 0 mm | - | 53 W/m² | - |
| 1788010367 | 21.11° C | 93% | 1107.2 hPa | 0 mm | - | 51 W/m² | - |
| 1788010067 | 20.56° C | 94% | 1107.1 hPa | 0 mm | - | 47 W/m² | - |
| 1788009762 | 20.56° C | 94% | 1107 hPa | 0 mm | - | 46 W/m² | - |
| 1788009460 | 20.56° C | 94% | 1107.2 hPa | 0 mm | - | 45 W/m² | - |
| 1788009155 | 20.56° C | 95% | 1107.1 hPa | 0 mm | - | 44 W/m² | - |
| 1788008850 | 20° C | 95% | 1107.1 hPa | 0 mm | - | 42 W/m² | - |
| 1788008550 | 20° C | 95% | 1107.2 hPa | 0 mm | - | 41 W/m² | - |
| 1788008248 | 20° C | 96% | 1107 hPa | 0 mm | - | 40 W/m² | - |
| 1788007946 | 20° C | 96% | 1107.1 hPa | 0 mm | - | 38 W/m² | - |
| 1788007645 | 20° C | 96% | 1107 hPa | 0 mm | - | 36 W/m² | - |
| 1788007340 | 20° C | 97% | 1107 hPa | 0 mm | - | 35 W/m² | - |
| 1788007035 | 19.44° C | 97% | 1106.9 hPa | 0 mm | - | 32 W/m² | - |
| 1788006735 | 19.44° C | 97% | 1106.8 hPa | 0 mm | - | 30 W/m² | - |
| 1788006434 | 19.44° C | 97% | 1106.8 hPa | 0 mm | - | 29 W/m² | - |
| 1788006129 | 20° C | 97% | 1106.7 hPa | 0 mm | - | 28 W/m² | - |
| 1788005828 | 20° C | 97% | 1106.6 hPa | 0 mm | - | 26 W/m² | - |
| 1788005523 | 19.44° C | 97% | 1106.7 hPa | 0 mm | - | 25 W/m² | - |
| 1788005222 | 19.44° C | 97% | 1106.6 hPa | 0 mm | - | 23 W/m² | - |
| 1788004921 | 20° C | 97% | 1106.6 hPa | 0 mm | - | 22 W/m² | - |
* Rain latest hour (hover to see other rain measurements)
** Current wind speed in m/s (hover to see current wind gust speed)